SCP
1 1 0 0 0 0 0 0 0 0 0 0 0 0 0 0 0 0 0 0 0 0 0 0 0 0 0 0 0 0 1 1 1 1 0 0 0 1 1 0 0 0 0
1 1 1 0 0 0 0 0 0 0 0 0 0 0 0 0 0 0 0 0 0 0 0 0 0 0 0 0 0 1 1 1 1 1 0 0 0 1 1 1 0 0 0
1 1 1 1 1 1 0 0 0 0 0 0 0 0 0 0 0 0 0 0 0 0 0 0 0 0 0 1 1 1 1 1 1 1 1 1 1 1 1 1 1 1 1
1 1 1 1 1 1 1 1 0 0 0 0 0 0 0 0 0 0 0 0 0 0 0 0 0 0 1 1 1 1 1 1 1 1 1 1 1 1 1 1 1 1 1
2 2 1 1 1 1 1 1 1 0 0 0 0 0 0 0 0 0 0 0 0 0 0 0 0 0 0 1 1 0 1 1 1 1 1 0 0 0 0 0 1 1 0
2 2 2 2 2 1 1 1 1 0 0 0 0 0 0 0 0 0 0 0 0 0 0 0 0 0 0 1 0 0 1 1 1 1 1 0 0 0 0 0 0 0 0
2 2 2 2 1 1 1 1 0 0 0 0 0 0 0 0 0 0 0 0 0 0 0 0 0 0 0 0 0 0 0 1 1 1 1 0 0 0 0 0 0 0 0
2 2 2 1 1 1 1 0 0 0 0 0 0 0 0 0 0 0 0 0 0 0 0 0 0 0 0 0 0 0 0 1 2 2 1 0 0 0 0 0 0 0 0
1 1 1 1 1 1 0 0 0 0 0 0 0 0 0 0 0 0 0 0 0 0 0 0 0 0 0 0 0 0 0 1 1 1 1 0 0 0 0 0 1 1 0
0 0 0 0 0 0 0 0 0 0 0 0 0 0 0 0 0 0 0 0 0 0 0 0 0 0 0 0 0 0 0 0 1 1 1 0 0 0 0 0 1 1 1
0 0 0 0 0 0 0 0 0 0 0 0 0 0 0 0 0 0 0 0 0 0 0 0 0 0 0 0 0 0 0 0 1 1 1 0 0 0 0 0 0 0 0
0 0 0 0 0 0 0 0 0 0 0 0 0 0 0 0 0 0 0 0 0 0 0 0 0 0 0 0 0 0 0 0 0 0 0 0 0 0 0 0 0 0 0
0 0 0 0 0 0 0 0 0 0 0 0 0 0 0 0 0 0 0 0 0 0 0 0 0 0 0 0 0 0 0 0 0 0 0 0 0 0 0 0 0 0 0
0 0 0 0 0 0 0 0 0 0 0 0 0 0 0 0 0 0 0 0 0 0 0 0 0 0 0 0 0 0 1 0 0 0 0 0 0 0 0 0 0 0 0
0 0 0 0 0 0 0 0 0 0 0 0 0 0 0 0 0 0 0 0 0 0 0 0 0 0 0 0 0 1 1 0 0 0 0 0 0 0 0 0 0 0 0
0 0 0 0 0 0 0 0 0 0 0 0 0 0 0 0 0 0 0 0 0 0 0 0 0 0 0 0 0 0 0 0 0 0 0 0 0 0 0 0 0 0 0
0 0 0 0 0 0 0 0 0 0 0 0 0 0 0 0 0 0 0 0 0 0 0 0 0 0 0 0 0 0 0 0 0 0 0 0 0 0 0 0 0 0 0
0 0 0 0 0 0 0 0 0 0 0 0 0 0 0 0 0 0 0 0 0 0 0 0 0 0 0 0 0 0 0 0 0 0 0 0 0 0 0 0 0 0 0
0 0 0 0 0 0 0 0 0 0 0 0 0 0 0 0 0 0 0 0 0 0 0 0 0 0 0 0 0 0 0 0 0 0 0 0 0 0 0 0 0 0 0
0 0 0 0 0 0 0 0 0 0 0 0 0 0 0 0 0 0 0 0 0 0 0 0 0 0 0 0 0 0 0 0 0 0 0 0 0 0 0 0 0 0 0
0 0 0 0 0 0 0 0 0 0 0 0 0 0 0 0 0 0 0 0 0 0 0 0 0 0 0 0 0 0 0 0 0 0 0 0 0 0 0 0 0 0 0
0 0 0 0 0 0 0 0 0 0 0 0 0 0 0 0 0 0 0 0 0 0 0 0 0 0 0 0 0 0 0 0 0 0 0 0 0 0 0 0 0 0 0
0 0 0 0 0 0 0 0 0 0 0 0 0 0 0 0 0 0 0 0 0 0 0 0 0 0 0 0 0 0 0 0 0 0 0 0 0 0 0 0 0 0 0
0 0 0 0 0 0 0 0 0 0 0 0 0 0 0 0 0 0 0 0 0 0 0 0 0 0 0 0 0 0 0 0 0 0 0 0 0 0 0 0 0 0 0
0 0 0 0 0 0 0 0 0 0 0 0 0 0 0 0 0 0 0 0 0 0 0 0 0 0 0 0 0 0 0 0 0 0 0 0 0 0 0 0 0 0 0
0 0 0 0 0 0 0 0 0 0 0 0 0 0 0 0 0 0 0 0 0 0 0 0 0 0 0 0 0 0 0 0 0 0 0 0 0 0 0 0 0 0 0
Wind_Speed
1 1 1 1 1 1 1 1 0 0 0 1 1 0 1 1 1 1 1 2 2 2 3 3 3 3 3 3 3 4 4 4 3 3 4 4 5 5 5 5 5 5 5
2 1 1 1 1 1 1 1 1 0 0 0 1 1 1 1 1 1 1 2 3 3 3 3 3 3 4 4 4 5 5 5 4 4 4 4 5 5 5 5 6 6 6
2 1 1 1 1 1 1 1 1 1 0 1 1 1 1 1 2 2 1 1 2 2 3 3 3 4 4 4 5 5 5 5 4 4 4 4 5 5 6 6 6 6 6
2 1 1 1 1 0 1 1 1 1 0 1 1 1 1 1 1 1 1 1 1 1 2 3 4 5 5 5 6 6 6 5 5 5 5 5 5 6 6 6 7 7 7
2 2 1 1 1 1 1 1 1 1 1 0 1 1 1 1 1 1 1 1 1 1 1 3 4 5 6 6 6 7 7 7 6 6 6 6 7 7 7 7 7 7 7
2 2 1 1 1 1 1 1 1 0 0 0 1 2 2 2 1 1 2 1 1 2 1 1 2 4 6 7 7 7 8 8 7 6 6 6 7 8 7 7 7 7 8
2 2 1 1 1 1 1 1 1 1 0 0 1 2 3 2 1 1 1 1 1 1 1 1 1 1 2 5 6 7 8 8 8 8 7 7 8 8 8 7 7 7 8
3 3 3 2 2 1 1 1 1 1 0 0 1 0 2 3 2 2 1 1 1 1 1 1 1 2 2 1 4 6 8 9 9 8 7 7 8 8 8 8 8 8 9
2 2 3 3 2 2 2 2 2 2 1 1 0 2 1 2 3 2 2 1 1 1 2 1 2 2 2 2 2 5 7 8 9 8 8 8 9 9 9 8 8 9 9
2 2 2 3 2 2 2 2 2 2 2 1 1 1 1 1 1 2 2 2 2 2 2 2 2 2 2 2 3 6 7 8 9 8 8 9 9 9 9 9 9 9 10
2 2 3 3 2 2 2 2 2 2 2 2 2 1 1 1 1 2 3 3 3 2 2 3 2 2 2 2 2 5 7 8 9 9 8 8 9 9 9 9 9 10 11
2 2 2 2 2 2 2 3 2 3 2 2 2 1 2 1 2 2 2 3 3 3 3 2 2 2 2 2 4 7 7 7 8 8 8 8 9 9 10 10 10 10 11
2 3 3 3 3 3 3 3 2 3 3 3 3 2 2 2 2 2 2 2 3 3 2 2 3 2 2 2 3 7 6 7 8 8 8 8 9 10 10 10 11 11 11
3 3 3 3 3 3 3 2 2 2 2 3 3 3 2 2 2 2 2 2 3 3 3 4 2 2 2 2 4 6 4 7 8 8 8 8 9 9 10 10 11 11 11
2 3 3 3 3 3 3 3 3 3 2 3 3 3 3 2 2 2 2 2 2 3 4 3 2 2 3 2 4 3 3 7 8 8 9 9 9 10 10 10 11 11 11
3 4 3 3 3 3 3 3 3 3 3 3 3 3 3 2 2 2 2 2 3 3 4 3 3 3 3 3 5 3 3 8 8 9 9 9 9 9 10 10 11 11 11
4 4 4 4 4 3 3 3 3 3 4 3 3 3 4 3 2 2 2 2 3 3 5 5 3 3 3 3 3 3 3 3 4 9 10 10 9 9 9 10 10 10 11
4 4 4 4 4 4 4 4 4 4 4 5 4 4 4 3 3 3 2 3 3 3 4 6 4 2 3 3 3 3 3 4 3 8 10 10 10 9 10 10 10 10 10
3 3 4 4 4 4 4 5 5 5 5 5 5 5 5 4 4 3 4 4 3 3 3 4 4 2 2 2 2 3 3 3 4 5 8 9 10 10 10 10 10 10 9
4 4 4 4 4 4 4 4 4 5 5 5 5 5 5 5 6 5 4 4 4 4 3 4 4 3 2 2 1 2 4 3 4 4 5 6 9 10 10 10 10 9 9
3 3 3 3 3 3 3 4 4 4 5 5 5 5 5 7 8 6 5 4 4 4 3 3 4 3 2 2 2 2 3 4 4 2 3 4 4 4 5 8 9 9 9
1 2 3 3 3 3 5 6 4 4 4 4 5 5 5 6 8 10 10 8 6 5 5 4 4 4 4 3 2 3 3 3 4 2 3 5 3 4 4 4 8 9 9
1 2 2 3 3 4 5 6 5 3 4 4 5 4 4 5 6 5 7 9 8 9 8 5 6 6 5 4 3 3 3 4 5 3 3 5 3 5 4 5 9 9 9
2 2 2 3 3 4 6 6 5 3 3 4 4 4 4 4 4 4 4 4 5 6 7 6 6 6 5 4 4 4 4 4 4 3 2 4 3 4 5 4 8 8 7
2 2 2 3 3 4 6 5 4 2 2 4 4 4 4 5 7 6 4 4 5 5 5 7 7 6 6 6 4 2 2 3 4 3 1 2 3 4 4 3 5 7 6
2 2 2 3 3 4 5 5 4 2 2 3 3 4 6 6 8 7 5 4 5 5 3 3 4 5 4 5 6 4 3 3 3 3 2 1 2 2 4 2 2 3 3
Wind_Direction
139 140 162 128 120 119 125 120 104 41 5 308 272 230 257 261 262 273 290 298 296 279 261 267 280 280 289 296 302 305 303 293 293 291 296 302 304 303 306 304 309 311 312
150 148 145 144 176 169 157 161 155 153 257 299 306 275 253 251 249 260 273 289 293 289 275 277 288 292 294 300 306 308 306 306 292 293 296 300 302 301 299 301 302 303 307
146 150 153 179 213 191 141 134 121 121 84 356 319 298 276 260 256 255 261 272 289 305 301 290 287 294 299 301 301 303 308 312 301 296 299 301 302 303 299 296 297 298 301
138 140 150 209 220 161 146 151 151 129 78 335 317 309 305 292 268 254 256 248 254 284 297 294 291 293 298 301 300 305 306 303 301 296 295 296 297 295 296 298 296 296 299
142 141 166 196 148 140 162 171 156 157 167 316 311 321 317 300 287 273 254 246 241 251 275 297 300 297 298 298 298 300 302 301 295 294 296 296 295 291 292 295 297 298 302
158 147 162 169 147 143 158 156 157 132 153 209 330 335 311 294 291 269 253 256 246 248 252 263 288 295 298 294 296 298 299 300 296 293 294 296 298 293 291 293 294 297 300
173 158 165 175 168 170 179 171 159 130 327 76 44 339 322 305 286 281 268 257 268 272 258 255 270 276 293 296 296 296 299 299 295 289 289 292 293 292 290 292 292 295 296
180 175 173 183 186 172 163 168 142 150 280 85 121 40 321 322 314 306 289 252 267 303 282 275 267 271 277 284 297 300 299 301 300 294 291 289 287 288 292 290 290 293 295
182 179 181 178 182 180 194 200 180 172 193 266 190 153 177 240 303 301 285 272 280 286 273 275 274 281 279 276 282 292 298 299 300 297 295 294 290 287 285 289 291 290 292
186 183 180 181 186 187 196 206 199 197 173 208 264 252 215 185 210 292 303 298 292 276 273 284 283 277 277 282 284 291 295 295 297 295 299 294 291 291 289 287 291 295 297
191 188 183 182 187 199 206 202 198 200 196 195 204 218 252 278 215 222 278 300 302 274 268 261 258 261 268 273 275 283 295 295 293 293 297 298 298 295 296 297 295 294 293
205 199 192 192 195 200 206 206 201 201 206 202 207 208 209 211 215 216 250 284 289 287 279 261 249 251 261 263 278 297 298 296 294 293 296 300 301 299 297 297 297 297 294
210 210 200 200 206 210 208 200 197 210 205 202 209 221 228 234 224 213 228 264 278 286 287 269 247 252 269 267 274 292 297 303 301 298 299 301 300 297 295 295 294 293 294
207 202 199 204 210 211 209 199 203 215 208 213 221 221 230 242 237 227 214 232 283 287 277 271 273 249 267 270 274 295 288 297 300 299 298 300 300 296 295 294 293 293 294
198 193 197 205 213 209 205 199 209 215 208 217 225 228 234 242 239 241 233 217 224 270 277 265 272 273 280 273 281 283 278 288 297 298 297 297 296 294 293 292 291 291 291
198 193 197 201 208 212 207 204 214 215 209 223 218 220 236 242 241 238 234 241 232 240 264 264 258 278 286 289 294 296 280 293 294 294 294 294 294 294 292 293 289 289 287
199 200 203 202 204 211 212 211 219 215 216 227 226 222 233 235 236 239 239 241 242 236 259 275 268 275 269 277 298 295 288 277 281 290 293 293 293 291 293 296 295 291 290
205 203 203 205 208 212 212 215 222 222 221 226 228 226 234 229 233 235 232 240 243 238 248 272 282 280 273 278 286 292 297 295 285 290 295 295 292 293 295 295 294 291 290
208 206 202 208 213 216 217 221 222 224 225 227 226 226 232 223 235 235 233 237 241 247 243 257 274 273 276 286 300 302 298 291 291 295 298 296 295 298 297 294 292 289 291
205 209 213 218 219 222 224 225 226 227 229 231 230 229 231 226 231 230 234 236 235 242 245 253 267 273 270 285 282 299 309 305 300 306 301 301 300 301 299 297 295 291 293
211 212 214 225 231 228 227 227 229 227 231 238 240 238 238 238 238 234 235 229 223 231 236 244 256 269 267 285 281 282 288 300 295 290 299 301 300 296 296 295 295 294 292
218 213 213 221 232 241 246 243 240 234 237 239 244 247 245 244 247 246 245 242 230 229 232 236 247 253 257 255 265 271 285 304 300 289 299 298 295 290 293 289 295 297 297
229 239 235 231 242 257 259 257 252 243 241 241 243 246 252 253 251 242 247 250 247 245 237 235 243 245 245 245 244 260 269 275 273 281 294 285 285 283 291 295 297 297 301
227 240 250 244 252 263 267 267 265 252 246 250 247 241 244 252 246 230 232 242 246 247 245 239 238 245 243 241 231 240 253 271 279 277 256 274 285 289 299 294 300 304 302
238 245 250 249 254 266 264 266 268 248 251 258 256 248 243 248 249 239 231 243 254 254 253 249 250 254 258 259 256 252 269 279 287 282 242 260 287 303 299 288 301 309 314
226 240 258 258 255 261 264 265 266 243 254 265 266 256 250 252 250 241 228 229 244 254 250 258 257 261 255 252 253 233 227 253 278 279 242 256 279 312 308 296 297 306 311